Flag for Norway Weather past 2 weeks in Fosnavåg, Norway

Now
76 °F

Mild.


Feels Like: 77 °F
Forecast: 53 / 62 °F
Wind: 2 mph from South

Location: Svinoy Fyr

Current Time: Jul 2, 2015 at 6:44:04 PM

Latest Report: Jul 2, 2015 at 4:00 PM


Visibility: N/A

Pressure: 30.06 "Hg

Humidity: 34%

Dew point: 45 °F

Location of FosnavågLocation

Historic Weather in Fosnavåg — Graph

°F

Fosnavåg temperature yesterday

Maximum temperature yesterday: 63 °F (at 12:00 PM)
Minimum temperature yesterday: 54 °F (at 1:00 AM)
Average temperature yesterday: 59 °F

Past Weeks' High & Low Weather Summary

 TemperatureHumidityPressure
High78 °F (Jul 2, 3:00 PM)96% (Jun 18, 1:00 AM)30.16 "Hg (Jun 18, 1:00 AM)
Low47 °F (Jun 24, 6:00 AM)27% (Jul 2, 3:00 PM)29.63 "Hg (Jun 18, 12:00 AM)
Average52 °F83%29.93 "Hg
* Reported Jun 17 4:00 PM — Jul 2 4:00 PM, Fosnavåg, Weather by CustomWeather, © 2015

Note: Actual official high and low records may vary slightly from our data, if they occured in-between our weather recording intervals... More about our weather records

Advertising

Fosnavåg weather history for previous 24 hours

 ConditionsComfort  
Time TempWeatherWind HumidityBarometerVisibility
4:00 PM
Thu, Jul 2
76 °FMild.2 mph34%30.06 "HgN/A
3:00 PM78 °FPleasantly warm.5 mph27%30.06 "HgN/A
2:00 PM77 °FPleasantly warm.2 mph32%30.07 "HgN/A
1:00 PM73 °FMild.2 mph41%30.10 "HgN/A
12:00 PM74 °FMild.6 mph40%30.09 "HgN/A
11:00 AM66 °FMild.6 mph64%30.11 "HgN/A
10:00 AM61 °FCool.8 mph74%30.10 "HgN/A
9:00 AM67 °FMild.5 mph60%30.12 "HgN/A
8:00 AM62 °FCool.8 mph68%30.11 "HgN/A
6:00 AM61 °FCool.6 mph70%30.13 "HgN/A
5:00 AM63 °FMild.5 mph60%30.14 "HgN/A
4:00 AM60 °FCool.5 mph70%30.16 "HgN/A
3:00 AM58 °FCool.6 mph78%30.15 "HgN/A
2:00 AM58 °FCool.5 mph79%30.16 "HgN/A
1:00 AM60 °FCool.7 mph68%30.16 "HgN/A
12:00 AM63 °FMild.16 mph55%30.14 "HgN/A
10:00 PM
Wed, Jul 1
61 °FCool.13 mph64%30.12 "HgN/A
9:00 PM60 °FCool.9 mph68%30.12 "HgN/A
8:00 PM61 °FCool.9 mph67%30.13 "HgN/A
7:00 PM60 °FCool.13 mph69%30.13 "HgN/A
Weather by CustomWeather, © 2015

See weather overviewHow to use our weather pages